GW7223 Weather Reports


time (UTC)temp
C
wind
direction
speed
KPH
gust
KPH
rain 1hr
cm
rain 24hr
cm
rain mn
cm
humidity
%
barometer
mb
20260507023937 29 175 8.0 0.0 0.00 0.13 0.00 66 1009.8
20260507023436 29 129 4.8 0.0 0.00 0.10 0.00 66 1009.7
20260507022953 29 159 11.3 0.0 0.00 0.10 0.00 66 1009.6
20260507022437 29 161 9.7 0.0 0.00 0.10 0.00 66 1009.5
20260507021936 29 139 12.9 0.0 0.00 0.10 0.00 65 1009.4
20260507021452 30 117 3.2 0.0 0.00 0.10 0.00 64 1009.4
20260507020937 30 152 9.7 0.0 0.00 0.10 0.00 64 1009.2
20260507020437 30 128 6.4 0.0 0.00 0.10 0.00 63 1009.2
20260507015938 30 129 12.9 0.0 0.00 0.10 0.00 62 1009.1
20260507015438 30 205 16.1 0.0 0.00 0.10 0.00 62 1009.1
20260507014938 30 172 9.7 0.0 0.00 0.08 0.00 61 1009.1
20260507014451 30 158 16.1 0.0 0.00 0.08 0.00 60 1009.0
20260507013938 30 93 8.0 0.0 0.00 0.08 0.00 59 1009.0
20260507013452 31 157 17.7 0.0 0.00 0.08 0.00 59 1009.0
20260507012938 31 128 14.5 0.0 0.00 0.08 0.00 55 1008.9
20260507012438 31 91 6.4 0.0 0.00 0.08 0.00 50 1008.7
20260507011938 32 175 14.5 0.0 0.00 0.08 0.00 50 1008.5
20260507011436 32 189 14.5 0.0 0.00 0.08 0.00 49 1008.4
20260507010937 32 156 0.0 0.0 0.00 0.05 0.00 48 1008.4
20260507010438 32 123 4.8 0.0 0.00 0.05 0.00 47 1008.3
20260507005953 32 139 9.7 0.0 0.00 0.05 0.00 47 1008.3
20260507005438 32 163 8.0 0.0 0.00 0.05 0.00 46 1008.2
20260507004938 32 153 6.4 0.0 0.00 0.05 0.00 47 1008.1
20260507004438 32 141 12.9 0.0 0.00 0.05 0.00 46 1008.0
20260507003939 32 139 11.3 0.0 0.00 0.05 0.00 46 1008.0
20260507003436 32 152 9.7 0.0 0.00 0.05 0.00 46 1007.9
20260507002939 33 115 4.8 0.0 0.00 0.03 0.00 46 1007.9
20260507002437 33 148 14.5 0.0 0.00 0.03 0.00 45 1007.9
20260507001938 33 120 9.7 0.0 0.00 0.03 0.00 45 1007.8
20260507001437 33 122 6.4 0.0 0.00 0.03 0.00 45 1007.8
20260507000953 33 76 3.2 0.0 0.00 0.03 0.00 45 1007.7
20260507000437 33 140 16.1 0.0 0.00 0.03 0.00 45 1007.6
20260506235937 33 137 12.9 0.0 0.00 0.03 0.00 45 1007.5
20260506235438 33 141 8.0 0.0 0.00 0.03 0.00 44 1007.4
20260506234938 33 181 22.5 0.0 0.00 0.03 0.00 44 1007.2
20260506234436 33 92 8.0 0.0 0.00 0.03 0.00 44 1007.2
20260506233937 34 162 4.8 0.0 0.00 0.03 0.00 44 1007.1
20260506233453 34 169 19.3 0.0 0.00 0.03 0.00 44 1007.0
20260506232952 34 171 9.7 0.0 0.00 0.03 0.00 42 1006.9
20260506232437 34 190 8.0 0.0 0.00 0.03 0.00 42 1006.9
20260506231954 34 148 14.5 0.0 0.00 0.03 0.00 41 1006.8
20260506231438 35 106 11.3 0.0 0.00 0.03 0.00 41 1006.8
20260506230936 35 155 25.7 0.0 0.00 0.03 0.00 42 1006.7
20260506230437 34 161 17.7 0.0 0.00 0.03 0.00 42 1006.7
20260506225937 34 155 32.2 0.0 0.00 0.03 0.00 41 1006.7
20260506225438 35 99 24.1 0.0 0.00 0.03 0.00 42 1006.7
20260506224937 35 160 11.3 0.0 0.00 0.03 0.00 40 1006.7
20260506224438 35 163 22.5 0.0 0.00 0.03 0.00 42 1006.7
20260506223936 35 147 12.9 0.0 0.00 0.03 0.00 42 1006.7
20260506223436 35 236 6.4 0.0 0.00 0.03 0.00 42 1006.7
20260506222938 35 79 6.4 0.0 0.00 0.03 0.00 42 1006.7
20260506222436 35 132 9.7 0.0 0.00 0.03 0.00 40 1006.8
20260506221939 35 121 4.8 0.0 0.00 0.03 0.00 41 1006.7
20260506221437 35 167 20.9 0.0 0.00 0.03 0.00 41 1006.6
20260506220952 35 122 20.9 0.0 0.00 0.03 0.00 40 1006.6
20260506220438 35 147 17.7 0.0 0.00 0.03 0.00 40 1006.6
20260506215936 36 166 29.0 0.0 0.00 0.03 0.00 38 1006.6
20260506215438 35 137 8.0 0.0 0.00 0.03 0.00 35 1006.6
20260506214953 35 192 8.0 0.0 0.00 0.03 0.00 38 1006.7
20260506214453 35 179 22.5 0.0 0.00 0.03 0.00 38 1006.8
20260506213939 35 101 11.3 0.0 0.00 0.03 0.00 40 1006.8
20260506213437 35 68 12.9 0.0 0.00 0.03 0.00 39 1006.8
20260506212937 36 150 11.3 0.0 0.00 0.03 0.00 38 1006.8
20260506212438 35 157 11.3 0.0 0.00 0.03 0.00 38 1006.9
20260506211952 36 154 17.7 0.0 0.00 0.03 0.00 39 1006.9
20260506211438 36 161 25.7 0.0 0.00 0.03 0.00 39 1006.9
20260506210938 36 157 19.3 0.0 0.00 0.03 0.00 39 1006.8
20260506210438 36 93 14.5 0.0 0.00 0.03 0.00 39 1006.9
20260506205936 36 130 19.3 0.0 0.00 0.03 0.00 40 1006.8
20260506205438 35 119 6.4 0.0 0.00 0.03 0.00 39 1006.9
20260506204937 36 127 35.4 0.0 0.00 0.03 0.00 40 1006.9
20260506204437 36 138 29.0 0.0 0.00 0.03 0.00 39 1007.0
20260506203937 36 91 37.0 0.0 0.00 0.03 0.00 38 1007.0
20260506203436 36 122 17.7 0.0 0.00 0.03 0.00 38 1007.0
20260506202938 36 144 32.2 0.0 0.00 0.03 0.00 39 1007.0
20260506202452 36 106 4.8 0.0 0.00 0.03 0.00 39 1007.1
20260506201938 36 122 16.1 0.0 0.00 0.03 0.00 39 1007.2
20260506201437 36 169 27.4 0.0 0.00 0.03 0.00 37 1007.3
20260506200936 36 134 17.7 0.0 0.00 0.03 0.00 37 1007.4
20260506200438 36 149 8.0 0.0 0.00 0.03 0.00 37 1007.4
20260506195937 35 170 16.1 0.0 0.00 0.03 0.00 38 1007.5
20260506195438 35 153 41.8 0.0 0.00 0.03 0.00 38 1007.6
20260506194937 35 138 24.1 0.0 0.00 0.03 0.00 36 1007.7
20260506194436 35 186 17.7 0.0 0.00 0.03 0.00 38 1007.7
20260506193938 36 149 20.9 0.0 0.00 0.03 0.00 36 1007.8
20260506193452 35 131 20.9 0.0 0.00 0.03 0.00 35 1007.9
20260506192938 35 173 11.3 0.0 0.00 0.03 0.00 37 1008.0
20260506192438 35 201 24.1 0.0 0.00 0.03 0.00 38 1008.1
20260506191937 36 142 19.3 0.0 0.00 0.03 0.00 38 1008.1
20260506191438 35 173 22.5 0.0 0.00 0.03 0.00 38 1008.1
20260506190936 35 120 12.9 0.0 0.00 0.03 0.00 39 1008.2
20260506190438 35 163 16.1 0.0 0.00 0.03 0.00 39 1008.3
20260506185937 35 133 16.1 0.0 0.00 0.03 0.00 38 1008.4
20260506185438 35 185 16.1 0.0 0.00 0.03 0.00 38 1008.5
20260506184937 35 76 8.0 0.0 0.00 0.03 0.00 40 1008.6
20260506184438 35 153 20.9 0.0 0.00 0.03 0.00 41 1008.6
20260506183951 35 136 4.8 0.0 0.00 0.03 0.00 40 1008.8
20260506183436 35 108 6.4 0.0 0.00 0.03 0.00 39 1008.7
20260506182938 36 168 19.3 0.0 0.00 0.03 0.00 39 1008.8
20260506182437 35 188 9.7 0.0 0.00 0.03 0.00 38 1008.8
20260506181938 36 151 12.9 0.0 0.00 0.03 0.00 37 1008.9
20260506181453 35 153 6.4 0.0 0.00 0.03 0.00 36 1008.9
20260506180952 35 149 17.7 0.0 0.00 0.03 0.00 36 1009.0
20260506180438 36 161 9.7 0.0 0.00 0.03 0.00 34 1009.1
20260506175937 35 214 3.2 0.0 0.00 0.03 0.00 33 1009.1
20260506175436 35 156 19.3 0.0 0.00 0.03 0.00 33 1009.1
20260506174937 35 170 14.5 0.0 0.00 0.03 0.00 29 1009.2
20260506174438 35 165 16.1 0.0 0.00 0.03 0.00 28 1009.2
20260506173951 35 237 9.7 0.0 0.00 0.03 0.00 26 1009.3
20260506173437 35 157 27.4 0.0 0.00 0.03 0.00 28 1009.3
20260506172937 36 141 8.0 0.0 0.00 0.03 0.00 27 1009.3
20260506172436 35 144 9.7 0.0 0.00 0.03 0.00 26 1009.3
20260506171937 36 202 3.2 0.0 0.00 0.03 0.00 27 1009.3
20260506171437 35 164 6.4 0.0 0.00 0.03 0.00 28 1009.4
20260506170936 35 144 12.9 0.0 0.00 0.03 0.00 28 1009.4
20260506170436 35 151 20.9 0.0 0.00 0.03 0.00 28 1009.5
20260506165938 35 150 16.1 0.0 0.00 0.03 0.00 27 1009.5
20260506165437 35 127 11.3 0.0 0.00 0.03 0.00 27 1009.6
20260506164939 35 104 9.7 0.0 0.00 0.03 0.00 28 1009.6
20260506164436 35 196 14.5 0.0 0.00 0.03 0.00 28 1009.7
20260506163937 35 47 9.7 0.0 0.00 0.03 0.00 28 1009.7
20260506163437 35 161 4.8 0.0 0.00 0.03 0.00 28 1009.7
20260506162953 35 188 6.4 0.0 0.00 0.03 0.00 28 1009.8
20260506162438 35 193 6.4 0.0 0.00 0.03 0.00 27 1009.9
20260506161937 35 149 19.3 0.0 0.00 0.03 0.00 26 1009.9
20260506161437 35 113 4.8 0.0 0.00 0.03 0.00 26 1009.9
20260506160936 34 158 0.0 0.0 0.00 0.03 0.00 26 1010.0
20260506160436 34 227 4.8 0.0 0.00 0.03 0.00 26 1010.0
20260506155938 34 181 0.0 0.0 0.00 0.03 0.00 26 1010.0
20260506155437 33 175 4.8 0.0 0.00 0.03 0.00 27 1010.0
20260506154938 33 153 0.0 0.0 0.00 0.03 0.00 27 1010.1
20260506154436 33 163 6.4 0.0 0.00 0.03 0.00 27 1010.1
20260506153938 33 77 9.7 0.0 0.00 0.03 0.00 27 1010.1
20260506153436 33 92 0.0 0.0 0.00 0.03 0.00 29 1010.0
20260506152937 33 353 0.0 0.0 0.00 0.03 0.00 29 1010.0
20260506152438 33 97 4.8 0.0 0.00 0.03 0.00 29 1010.0
20260506151953 33 145 0.0 0.0 0.00 0.03 0.00 30 1010.1
20260506151436 32 119 0.0 0.0 0.00 0.03 0.00 30 1010.2
20260506150937 32 174 8.0 0.0 0.00 0.03 0.00 31 1010.2
20260506150437 32 84 3.2 0.0 0.00 0.03 0.00 32 1010.2
20260506145936 31 105 0.0 0.0 0.00 0.03 0.00 32 1010.2
20260506145437 31 273 4.8 0.0 0.00 0.03 0.00 32 1010.3
20260506144938 30 180 1.6 0.0 0.00 0.00 0.00 33 1010.2
20260506144436 30 327 3.2 0.0 0.00 0.00 0.00 33 1010.2
20260506143937 29 297 9.7 0.0 0.00 0.00 0.00 32 1010.2
20260506143438 29 349 11.3 0.0 0.00 0.00 0.00 32 1010.1
20260506142953 28 325 6.4 0.0 0.00 0.00 0.00 32 1010.2
20260506142451 28 312 16.1 0.0 0.00 0.00 0.00 32 1010.2
20260506141938 28 321 17.7 0.0 0.00 0.00 0.00 32 1010.2
20260506141436 28 307 19.3 0.0 0.00 0.00 0.00 32 1010.2
20260506140936 27 111 6.4 0.0 0.00 0.00 0.00 40 1010.3
20260506140438 27 301 8.0 0.0 0.00 0.00 0.00 40 1010.3
20260506135953 26 117 3.2 0.0 0.00 0.00 0.00 43 1010.3
20260506135438 26 44 4.8 0.0 0.00 0.00 0.00 44 1010.4
20260506134938 25 305 6.4 0.0 0.00 0.00 0.00 44 1010.4
20260506134438 25 346 12.9 0.0 0.00 0.00 0.00 44 1010.5
20260506133936 25 17 8.0 0.0 0.00 0.00 0.00 44 1010.6
20260506133437 25 108 8.0 0.0 0.00 0.00 0.00 42 1010.5
20260506132952 24 13 8.0 0.0 0.00 0.00 0.00 43 1010.6
20260506132438 23 327 14.5 0.0 0.00 0.00 0.00 43 1010.5
20260506131937 23 327 14.5 0.0 0.00 0.00 0.00 43 1010.5
20260506131452 23 326 12.9 0.0 0.00 0.00 0.00 44 1010.5
20260506130937 23 4 16.1 0.0 0.00 0.00 0.00 45 1010.6
20260506130436 22 20 8.0 0.0 0.00 0.00 0.00 47 1010.6
20260506125938 22 334 14.5 0.0 0.00 0.00 0.00 48 1010.6
20260506125452 22 346 12.9 0.0 0.00 0.00 0.00 49 1010.7
20260506124937 22 23 3.2 0.0 0.00 0.00 0.00 48 1010.7
20260506124438 22 65 6.4 0.0 0.00 0.00 0.00 48 1010.7
20260506123938 22 108 3.2 0.0 0.00 0.00 0.00 48 1010.6
20260506123436 22 314 16.1 0.0 0.00 0.00 0.00 46 1010.5
20260506122936 22 318 12.9 0.0 0.00 0.00 0.00 47 1010.5
20260506122438 22 355 6.4 0.0 0.00 0.00 0.00 47 1010.4
20260506121938 21 353 16.1 0.0 0.00 0.00 0.00 48 1010.4
20260506121437 21 340 25.7 0.0 0.00 0.00 0.00 50 1010.4
20260506120937 20 4 22.5 0.0 0.00 0.00 0.00 53 1010.5
20260506120436 20 345 12.9 0.0 0.00 0.00 0.00 55 1010.5
20260506115938 21 86 11.3 0.0 0.00 0.00 0.00 52 1010.4
20260506115436 21 342 16.1 0.0 0.00 0.00 0.00 50 1010.4
20260506114936 21 348 8.0 0.0 0.00 0.00 0.00 50 1010.4
20260506114437 20 6 9.7 0.0 0.00 0.00 0.00 51 1010.4
20260506113937 20 6 11.3 0.0 0.00 0.00 0.00 52 1010.5
20260506113436 21 11 14.5 0.0 0.00 0.00 0.00 52 1010.6
20260506112952 21 9 6.4 0.0 0.00 0.00 0.00 51 1010.6
20260506112438 21 10 12.9 0.0 0.00 0.00 0.00 51 1010.6
20260506111938 21 352 11.3 0.0 0.00 0.00 0.00 51 1010.5
20260506111436 21 350 14.5 0.0 0.00 0.00 0.00 50 1010.6
20260506110938 21 35 12.9 0.0 0.00 0.00 0.00 50 1010.5
20260506110453 21 348 17.7 0.0 0.00 0.00 0.00 50 1010.4
20260506105938 20 4 9.7 0.0 0.00 0.00 0.00 53 1010.4
20260506105439 20 360 17.7 0.0 0.00 0.00 0.00 54 1010.5
20260506104952 20 341 9.7 0.0 0.00 0.00 0.00 56 1010.5
20260506104437 20 335 11.3 0.0 0.00 0.00 0.00 56 1010.4
20260506103937 20 351 17.7 0.0 0.00 0.00 0.00 54 1010.4
20260506103438 20 348 9.7 0.0 0.00 0.00 0.00 56 1010.4
20260506102936 20 334 8.0 0.0 0.00 0.00 0.00 57 1010.3
20260506102437 20 26 8.0 0.0 0.00 0.00 0.00 58 1010.3
20260506101952 20 4 9.7 0.0 0.00 0.00 0.00 58 1010.2
20260506101437 20 44 8.0 0.0 0.00 0.00 0.00 58 1010.2
20260506100938 20 360 6.4 0.0 0.00 0.00 0.00 58 1010.2
20260506100437 20 344 12.9 0.0 0.00 0.00 0.00 57 1010.2
20260506095937 20 16 11.3 0.0 0.00 0.00 0.00 59 1010.2
20260506095438 21 1 16.1 0.0 0.00 0.00 0.00 59 1010.3
20260506094937 21 40 3.2 0.0 0.00 0.00 0.00 60 1010.2
20260506094438 21 353 8.0 0.0 0.00 0.00 0.00 60 1010.2
20260506093936 21 25 6.4 0.0 0.00 0.00 0.00 59 1010.1
20260506093437 21 66 6.4 0.0 0.00 0.00 0.00 59 1010.1
20260506092939 21 35 6.4 0.0 0.00 0.00 0.00 58 1010.1
20260506092436 21 26 6.4 0.0 0.00 0.00 0.00 58 1010.1
20260506091938 21 264 9.7 0.0 0.00 0.00 0.00 57 1010.2
20260506091437 21 357 4.8 0.0 0.00 0.00 0.00 60 1010.2
20260506090937 26 153 0.0 0.0 0.00 0.20 0.00 77 1010.6
20260506090438 26 153 0.0 0.0 0.00 0.20 0.00 77 1010.6
20260506085953 26 153 0.0 0.0 0.00 0.20 0.00 77 1010.6
20260506085438 26 153 0.0 0.0 0.00 0.20 0.00 77 1010.6
20260506084936 26 153 0.0 0.0 0.00 0.20 0.00 77 1010.6
20260506084438 26 153 0.0 0.0 0.00 0.20 0.00 77 1010.6
20260506083938 26 153 0.0 0.0 0.00 0.20 0.00 77 1010.6
20260506083437 26 153 0.0 0.0 0.00 0.20 0.00 77 1010.6
20260506082952 26 153 0.0 0.0 0.00 0.20 0.00 77 1010.6
20260506082453 26 153 0.0 0.0 0.00 0.20 0.00 77 1010.6
20260506081938 26 153 0.0 0.0 0.00 0.20 0.00 77 1010.6
20260506081453 26 153 0.0 0.0 0.00 0.20 0.00 77 1010.6
20260506080938 26 153 0.0 0.0 0.00 0.20 0.00 77 1010.6
20260506080452 26 153 0.0 0.0 0.00 0.20 0.00 77 1010.6
20260506073437 26 153 0.0 0.0 0.00 0.20 0.00 77 1010.6
20260506072936 26 153 0.0 0.0 0.00 0.20 0.00 77 1010.6
20260506072438 26 153 0.0 0.0 0.00 0.20 0.00 77 1010.6
20260506071937 26 153 0.0 0.0 0.00 0.20 0.00 77 1010.6
20260506071436 26 153 0.0 0.0 0.00 0.20 0.00 77 1010.6
20260506070938 26 153 0.0 0.0 0.00 0.20 0.00 77 1010.6
20260506070438 26 153 0.0 0.0 0.00 0.20 0.00 77 1010.6
20260506062438 26 153 0.0 0.0 0.00 0.20 0.00 77 1010.6
20260506061938 26 153 0.0 0.0 0.00 0.20 0.00 77 1010.6
20260506061438 26 153 0.0 0.0 0.00 0.20 0.00 77 1010.6
20260506060938 26 153 0.0 0.0 0.00 0.20 0.00 77 1010.6
20260506060437 26 153 0.0 0.0 0.00 0.20 0.00 77 1010.6
20260506050937 26 153 0.0 0.0 0.20 0.20 0.00 77 1010.6
20260506050436 26 153 0.0 0.0 0.20 0.20 0.00 77 1010.6
20260506044938 26 153 0.0 0.0 0.20 0.20 0.00 77 1010.6
20260506044437 26 153 0.0 0.0 0.20 0.20 0.00 77 1010.6
20260506043937 26 153 0.0 0.0 0.20 0.20 0.00 77 1010.6
20260506043437 26 153 0.0 0.0 0.20 0.20 0.00 77 1010.6
20260506042938 26 153 0.0 0.0 0.20 0.20 0.00 77 1010.6
20260506042437 26 153 0.0 0.0 0.20 0.20 0.00 77 1010.6
20260506041938 26 153 0.0 0.0 0.20 0.20 0.00 77 1010.6
20260506041437 26 153 0.0 0.0 0.20 0.20 0.00 77 1010.6
20260506040937 26 153 0.0 0.0 0.20 0.20 0.00 77 1010.6
20260506040437 26 153 0.0 0.0 0.20 0.20 0.00 77 1010.6
20260506035937 26 153 0.0 0.0 0.20 0.20 0.00 77 1010.6
20260506035438 26 153 0.0 0.0 0.20 0.20 0.00 77 1010.6
20260506034951 26 153 0.0 0.0 0.20 0.20 0.00 77 1010.6
20260506034438 26 153 0.0 0.0 0.20 0.20 0.00 77 1010.6
20260506033951 26 153 0.0 0.0 0.20 0.20 0.00 77 1010.6
20260506033437 26 153 0.0 0.0 0.20 0.20 0.00 77 1010.6
20260506032938 26 153 0.0 0.0 0.20 0.20 0.00 77 1010.6
20260506032451 26 153 0.0 0.0 0.20 0.20 0.00 77 1010.6
20260506031952 26 153 0.0 0.0 0.20 0.20 0.00 77 1010.6
20260506031452 26 153 0.0 0.0 0.20 0.20 0.00 77 1010.6
20260506030938 26 153 0.0 0.0 0.20 0.20 0.00 77 1010.6
20260506030438 26 153 0.0 0.0 0.20 0.20 0.00 77 1010.6
20260506025938 26 160 0.0 0.0 0.20 0.20 0.00 77 1010.6
20260506025451 26 155 1.6 0.0 0.20 0.20 0.00 78 1010.5
20260506024938 26 114 9.7 0.0 0.20 0.20 0.00 78 1010.4
20260506024436 27 102 9.7 0.0 0.20 0.20 0.00 77 1010.3